Terug naar catalogus

BLACK ARROW R/B

ActiefPO
NORAD 5581·ROCKET BODY·🇬🇧 United Kingdom

Gelanceerd Oct 28, 1971 vanaf Woomera Range Complex

Loading…

Volgende Passages (komende 24 uur)

TLE

VersSource: Space-Track

Epoch: Sep 14, 2026, 09:46 UTC

1 05581U 71093B   26257.40701456  .00000817  00000-0  17000-3 0  9995
2 05581  82.0344 247.4464 0505724  88.7779 277.1255 14.00684197759091

Volg BLACK ARROW R/B in realtime met AllMySat

Download on the App Store